Overview Statistics Trail Chart Weather Telemetry Raw packets
 

This is the latest recevied weather packets stored in our database for station/object DM8MH-13. If no packets are shown the sender has not sent any weather packets the latest 10 day(s).

<< 25 26 27 28 29 30 31 >>
Time Temp. Humidity Pressure Rain* Wind** Luminosity Snow
1788207071 16.11° C 85% 1014.4 hPa 0 mm - 0 W/m² -
1788206471 16.11° C 86% 1014.2 hPa 0 mm - 0 W/m² -
1788205872 16.11° C 85% 1014 hPa 0.25 mm - 0 W/m² -
1788205271 16.67° C 85% 1013.6 hPa 0.25 mm - 0 W/m² -
1788204671 16.67° C 84% 1013.3 hPa 0.25 mm - 0 W/m² -
1788204071 16.67° C 84% 1013.1 hPa 0.25 mm - 0 W/m² -
1788203471 16.67° C 82% 1013.1 hPa 0.25 mm - 0 W/m² -
1788202871 16.67° C 81% 1012.9 hPa 0.25 mm - 0 W/m² -
1788202272 16.67° C 81% 1012.9 hPa 0 mm - 0 W/m² -
1788201671 17.22° C 81% 1013.1 hPa 0 mm - 0 W/m² -
1788201071 16.67° C 82% 1013.2 hPa 0 mm - 0 W/m² -
1788200471 16.67° C 82% 1013.1 hPa 0 mm - 0 W/m² -
1788199871 16.67° C 82% 1012.7 hPa 0.76 mm - 0 W/m² -
1788199271 16.67° C 82% 1012.7 hPa 1.52 mm - 0 W/m² -
1788198671 16.67° C 81% 1012.5 hPa 1.52 mm - 0 W/m² -
1788198071 16.67° C 80% 1012.4 hPa 1.52 mm - 8 W/m² -
1788197471 17.22° C 79% 1012.4 hPa 1.52 mm - 0 W/m² -
1788196871 17.22° C 76% 1012.6 hPa 1.52 mm - 0 W/m² -
1788196271 19.44° C 67% 1012.6 hPa 0.51 mm - 0 W/m² -
1788195671 21.67° C 61% 1012.2 hPa 0 mm - 7 W/m² -
1788195072 22.78° C 57% 1011.9 hPa 0 mm - 9 W/m² -
1788194471 22.78° C 55% 1011.7 hPa 0 mm - 34 W/m² -
1788193871 23.33° C 54% 1011.7 hPa 0 mm - 49 W/m² -
1788193271 23.33° C 55% 1011.5 hPa 0 mm - 46 W/m² -
1788192671 23.33° C 54% 1011.4 hPa 0 mm - 56 W/m² -

* Rain latest hour (hover to see other rain measurements)
** Current wind speed in m/s (hover to see current wind gust speed)